#timestamp,LO_Frequency,Hit,StdDev 
1576378815.3,286046999.6,N
1576378835.1,286046994.9,N
1576378855.9,286046996.5,N
1576378875.7,286046999.3,N
1576378895.6,286046996.9,N
1576378915.4,286046999.3,N
1576378935.2,286046997.0,N
1576378955.1,286046996.9,N
1576378956.0,286046996.9,N
1576378975.8,286046993.4,Y
1576378995.7,286046997.7,P
1576379015.5,286046999.0,N
1576379035.3,286046997.3,P
1576379055.2,286046997.7,Y
1576379075.0,286046998.7,P
1576379075.9,286046998.7,P
1576379095.8,286046999.1,P
1576379115.6,286047000.0,N
1576379135.4,286047000.9,N
1576379155.3,286047001.3,N
1576379175.1,286047002.0,N
1576379195.8,286047005.5,Y
1576379215.7,286047007.0,P
1576379235.5,286047005.4,N
1576379255.4,286047004.6,N
1576379275.2,286047006.8,N
1576379295.0,286047005.7,N
1576379295.9,286047005.7,N
1576379315.8,286047005.1,N
1576379335.6,286047007.1,Y
1576379355.5,286047001.9,P
1576379375.3,286047002.6,N
1576379395.1,286046999.7,N
1576379415.9,286047001.0,N
1576379435.7,286046999.5,N
1576379455.5,286046996.6,N
1576379475.4,286046998.3,N
1576379495.2,286046996.9,N
1576379515.1,286046997.1,N
1576379516.0,286046997.1,N
1576379535.8,286046995.1,N
1576379555.6,286046993.5,N
1576379575.5,286046997.5,N
1576379595.3,286046999.2,N
1576379615.1,286047002.8,N
1576379635.9,286047000.2,N
1576379655.7,286047001.0,N
1576379675.6,286047000.7,N
1576379695.4,286047001.6,N
1576379715.2,286047001.5,N
1576379735.1,286047003.7,N
1576379736.0,286047003.7,N
1576379755.8,286047003.5,N
1576379775.6,286047005.7,N
1576379795.5,286047004.8,N
1576379815.3,286047007.6,N
1576379835.2,286047006.9,N
1576379855.9,286047008.9,N
1576379875.7,286047005.0,N
1576379895.6,286047005.5,N
1576379915.4,286047005.7,N
1576379935.3,286047003.3,N
1576379955.1,286047004.7,N
1576379956.0,286047004.7,N
1576379975.8,286047003.5,N
1576379995.7,286047003.9,N
1576380015.5,286047006.0,N
1576380035.3,286047004.1,N
1576380055.2,286047004.7,N
1576380075.0,286047004.9,N
1576380075.9,286047004.9,N
1576380095.8,286047001.7,N
1576380115.6,286047002.2,N
1576380135.4,286047000.0,N
1576380155.3,286047000.0,N
1576380175.1,286047000.9,N
1576380195.8,286047000.8,N
1576380215.7,286047001.6,N
1576380235.5,286046998.7,N
1576380255.4,286047000.7,N
1576380275.2,286047000.5,N
1576380295.0,286046996.5,N
1576380295.9,286046996.5,N
1576380315.8,286046995.1,N
1576380335.6,286046997.8,N
1576380355.4,286046999.5,N
1576380375.3,286046999.3,N
1576380395.1,286046998.8,N
1576380415.9,286046998.1,N
1576380435.7,286046996.5,N
1576380455.5,286046996.6,N
1576380475.4,286046997.8,N
1576380525.2,286046997.8,E
1576380535.2,286046996.5,N
1576380555.0,286047000.8,P
1576380555.9,286047000.8,N
1576380575.7,286046996.7,N
1576380595.6,286046998.5,N
1576380615.4,286046998.7,N
1576380635.3,286047000.2,N
1576380655.1,286047005.3,Y
1576380675.8,286047008.8,P
1576380695.7,286047009.2,N
1576380715.5,286047006.3,N
1576380735.4,286047007.2,N
1576380755.2,286047005.4,N
1576380775.0,286047003.8,N
1576380775.9,286047003.8,N
1576380795.8,286047005.5,N
1576380815.6,286047003.2,N
1576380835.4,286047003.8,N
1576380855.3,286047003.8,N
1576380875.1,286047004.0,N
1576380895.9,286047001.8,N
1576380915.7,286047001.7,N
1576380935.5,286047004.3,N
1576380955.4,286046999.8,N
1576380975.2,286047001.0,N
1576380995.0,286046997.0,N
1576380995.9,286046997.0,N
1576381015.8,286046999.4,N
1576381035.6,286047001.0,N
1576381055.5,286047001.9,N
1576381075.3,286047002.0,N
1576381095.1,286047000.1,N
1576381115.9,286047002.2,N
1576381135.7,286047000.3,N
1576381155.6,286046998.9,N
1576381175.4,286046998.9,N
1576381195.2,286046996.5,N
1576381215.1,286046996.7,N
1576381216.0,286046996.7,N
1576381235.8,286046996.9,N
1576381255.6,286046999.4,N
1576381275.5,286046995.0,N
1576381295.3,286046995.1,N
1576381315.2,286046995.3,N
1576381335.9,286046997.0,N
1576381355.7,286046997.4,N
1576381375.6,286046995.7,N
1576381395.4,286046997.4,N
1576381415.3,286046998.8,N
1576381435.1,286046999.3,N
1576381436.0,286046999.3,N
1576381455.8,286047000.7,N
1576381475.7,286047000.6,N
1576381495.5,286046998.2,N
1576381515.3,286046998.7,N
1576381535.2,286047001.0,N
1576381555.0,286047000.1,N
1576381555.9,286047000.1,N
1576381575.8,286046999.9,N
1576381595.6,286046997.0,N
1576381615.4,286046997.0,N
1576381635.3,286046997.6,N
1576381655.1,286046995.3,N
1576381675.8,286046997.2,N
1576381695.7,286046999.1,N
1576381715.5,286046997.4,N
1576381735.4,286046996.7,N
1576381755.2,286046999.3,N
1576381775.0,286046999.6,N
1576381775.9,286046999.6,N
1576381795.8,286046999.5,N
1576381815.6,286047000.9,N
1576381835.5,286047001.0,N
1576381855.3,286046998.5,N
1576381875.1,286046996.5,N
1576381895.9,286046999.1,N
1576381915.7,286046998.0,N
1576381935.5,286046998.0,N
1576381955.4,286046999.3,N
1576381975.2,286046999.6,N
1576381995.1,286046997.5,N
1576381996.0,286046997.5,N
1576382015.8,286046997.8,N
1576382035.6,286046995.5,Y
1576382055.5,286046997.3,P
1576382075.3,286046998.3,N
1576382095.1,286046996.7,P
1576382115.9,286046995.0,Y
1576382135.7,286046998.6,P
1576382155.6,286047000.8,N
1576382175.4,286046998.5,N
1576382195.2,286046999.0,N
1576382215.1,286047001.1,N
1576382216.0,286047001.1,N
1576382235.8,286047000.0,N
1576382255.7,286047002.6,N
1576382275.5,286047001.4,N
1576382295.3,286047000.2,N
1576382315.2,286046998.2,N
1576382335.0,286046998.6,N
1576382335.9,286046998.6,N
1576382355.7,286046998.7,N
1576382375.6,286046997.3,N
1576382395.4,286046999.1,N
